Location: Bothwell
(42.3833°S, 147.0000°E)
Time: 10:11:15
(UTC+10:00)

UNISAT 6 - Pass Details

Date: 09 August 2024
Orbit: 589 x 662 km, 97.7° (Epoch: 14 September)

Event Time Altitude Azimuth Distance (km) Brightness Sun altitude
Rises 03:23:49 0° 145° (SE) 3,040 ? -42.3°
Reaches altitude 10° 03:27:46 10° 111° (ESE) 2,116 ? -41.6°
Enters shadow 03:28:43 11° 99° (E) 2,032 ? -41.4°
